Location: Grossmotten
(48.5500°N, 15.3833°E)
Time: 14:26:06
(UTC+00:00)

Cosmos 1937 Rocket - Pass Details

Date: 15 November 2019
Orbit: 747 x 780 km, 74.0° (Epoch: 12 December)

Event Time Altitude Azimuth Distance (km) Brightness Sun altitude
Rises 05:03:02 0° 223° (SW) 3,190 6.4 -10.5°
Reaches altitude 10° 05:05:31 10° 230° (SW) 2,266 5.6 -10.1°
Maximum altitude 05:10:21 41° 301° (WNW) 1,081 3.8 -9.3°
Drops below altitude 10° 05:15:13 10° 12° (NNE) 2,275 5.9 -8.5°
Sets 05:17:43 0° 19° (NNE) 3,204 6.7 -8.2°
